Regional Weather Roundup
Issued by NWS

Home | Current Version | Previous Version | Text Only | Print | Product List | Glossary Off
Versions: 1 2 3 4 5 6 7 8 9 10 11 12 13 14 15 16 17 18 19 20 21 22 23 24 25 26 27 28 29 30 31 32 33 34 35 36 37 38 39 40 41 42 43 44 45 46 47 48 49 50

000
ASUS43 KMKX 072300
RWRWI

WISCONSIN REGIONAL WEATHER ROUNDUP
NATIONAL WEATHER SERVICE MILWAUKEE/SULLIVAN WI
600 PM CDT TUE JUL 07 2015

NOTE: "FAIR" INDICATES FEW OR NO CLOUDS BELOW 12,000 FEET WITH NO
SIGNIFICANT WEATHER AND/OR OBSTRUCTIONS TO VISIBILITY.

WIZ001-002-006>008-014>016-023>028-080000-
NORTHWEST WISCONSIN

CITY           SKY/WX    TMP DP  RH WIND       PRES   REMARKS
SUPERIOR ARPT  SUNNY     72  48  42 W8        30.09S
ASHLAND        SUNNY     70  47  43 SE3       30.10F
HAYWARD        SUNNY     69  43  38 VRB6      30.12F
SIREN          SUNNY     70  41  34 W3        30.12F
CUMBERLAND     SUNNY     68  43  40 N6        30.13S
RICE LAKE      SUNNY     69  45  41 NW5       30.13F
CHETEK         SUNNY     69  47  46 N6        30.11F
LADYSMITH      SUNNY     70  45  40 N10       30.13S
EAU CLAIRE     NOT AVBL
MENOMONIE      MOSUNNY   70  46  42 NW6       30.11S
NEW RICHMOND   MOSUNNY   68  47  47 NW3       30.13F
OSCEOLA        PTSUNNY   69  46  43 CALM      30.15F
$$

WIZ003>005-009-010-017-018-080000-
NORTH CENTRAL WISCONSIN

CITY           SKY/WX    TMP DP  RH WIND       PRES   REMARKS
MANITOWISH WTR SUNNY     64  44  47 NE6       30.12S
ARBOR VITAE    MOSUNNY   65  44  47 NW9       30.12S
WOODRUFF       MOSUNNY   65  44  47 NW9       30.12S
RHINELANDER    SUNNY     66  44  45 VRB6      30.11S
EAGLE RIVER    SUNNY     64  43  45 N9        30.11S
LAND O LAKES   SUNNY     65  42  42 N7        30.13S
PHILLIPS       SUNNY     66  45  47 NW9       30.11S
TOMAHAWK       SUNNY     66  44  45 CALM      30.11S
MEDFORD        MOSUNNY   67  46  46 N8        30.11S
MERRILL        MOSUNNY   68  47  47 N5        30.10S
$$

WIZ029-030-035-036-043>047-080000-
CENTRAL WISCONSIN

CITY           SKY/WX    TMP DP  RH WIND       PRES   REMARKS
WAUSAU         PTSUNNY   70  45  40 N8        30.08S
MOSINEE        MOSUNNY   66  46  48 N5        30.10S
MARSHFIELD     PTSUNNY   71  46  40 VRB7      30.09S
STEVENS POINT  MOSUNNY   67  46  47 N8        30.09S
WAUPACA        MOSUNNY   70  48  46 N8        30.08S
WAUTOMA        NOT AVBL
WISC RAPIDS    MOSUNNY   71  45  39 NE7       30.09F
CAMP DOUGLAS   NOT AVBL
$$

WIZ011>013-019>022-031-037>040-048>050-080000-
NORTHEAST WISCONSIN

CITY           SKY/WX    TMP DP  RH WIND       PRES   REMARKS
ANTIGO         PTSUNNY   65  48  52 N12       30.10S
SHAWANO        MOSUNNY   71  47  43 N9        30.08S
OCONTO         SUNNY     69  48  48 N12       30.06S
STURGEON BAY   SUNNY     66  48  52 N8        30.08F
GREEN BAY      MOSUNNY   69  48  47 N10       30.07R
MANITOWOC      NOT AVBL
APPLETON       PTSUNNY   68  45  42 N15       30.08R
CLINTONVILLE   MOSUNNY   68  45  42 N7        30.07S
OSHKOSH        MOSUNNY   69  48  47 N12       30.06S
$$

WIZ032>034-041-042-053>061-080000-
SOUTHWEST WISCONSIN

CITY           SKY/WX    TMP DP  RH WIND       PRES   REMARKS
LA CROSSE      MOSUNNY   71  49  45 N9        30.09S
SPARTA         MOSUNNY   69  46  43 N5        30.09F
VIROQUA        MOSUNNY   67  49  52 N8        30.10S
BOSCOBEL       MOSUNNY   68  49  50 NE6       30.09S
PRAIRIE DU CHI CLOUDY    67  46  47 NE7       30.09S
PLATTEVILLE    PTSUNNY   68  51  53 N5        30.09S
$$

WIZ056-057-062-063-064-067-068-080000-
SOUTH CENTRAL WISCONSIN

CITY           SKY/WX    TMP DP  RH WIND       PRES   REMARKS
REEDSBURG      PTSUNNY   67  49  53 NW6       30.08F
BARABOO/DELLS  SUNNY     66  46  47 NW6       30.08F
LONE ROCK      NOT AVBL
MINERAL POINT  PTSUNNY   70  46  43 N8        30.09S
MADISON        PTSUNNY   67  49  52 NE9       30.07S
MIDDLETON      PTSUNNY   67  48  51 N6        30.09S
WATERTOWN      MOSUNNY   65  49  56 N5        30.07S
MONROE         PTSUNNY   68  52  56 N6        30.08S
JANESVILLE     PTSUNNY   70  48  46 N9        30.06S
$$

WIZ051-052-058>065-066-070>072-080000-
SOUTHEAST WISCONSIN

CITY           SKY/WX    TMP DP  RH WIND       PRES   REMARKS
MILWAUKEE      MOSUNNY   61  48  62 NE8       30.08S
WAUKESHA       PTSUNNY   63  50  63 E10       30.09R
MILWAUKEE/TIMM NOT AVBL
RACINE         SUNNY     62  48  60 N12       30.09S
BURLINGTON     PTSUNNY   64  51  61 E7        30.07R
KENOSHA        SUNNY     63  49  60 E10       30.08S
FOND DU LAC    MOSUNNY   68  49  50 NE12      30.07S
SHEBOYGAN      PTSUNNY   60  49  66 E9        30.08R
WEST BEND      PTSUNNY   63  50  63 E7        30.07S
JUNEAU         PTSUNNY   66  48  52 N6        30.08S
$$

LSZ147-162-080000-
LAKE SUPERIOR

STATION/POSITION TIME  TEMP    WIND        PRES    WAVE
                       AIR SEA DIR/SP/G            HT/PER
                 (UTC) (F)     (DEG/KT/KT) (MB)    (FT/S)
W MID LAKE BUOY  2150   47 39  210/ 10/ 12 1019.5S   0
DEVILS ISLAND    2200   64     230/  5/  6 1019.3F
PORT WING        2200   68     290/  5/  7 1019.3F
SAXON HARBOR     2200   71        CALM     1020.0S
$$

LMZ867-665-643>646-080000-
LAKE MICHIGAN

STATION/POSITION TIME  TEMP    WIND        PRES    WAVE
                       AIR SEA DIR/SP/G            HT/PER
                 (UTC) (F)     (DEG/KT/KT) (MB)    (FT/S)
CHAMBERS ISLAND  2200   65      20/ 11/ 13 1017.9S
S GREEN BAY BUOY 2200   67 68  360/ 10/ 14 1019.2S
N MID LAKE BUOY  2150   56 52   50/  4/  6 1017.6R   2/ 4
NORTHPORT PIER   2200   62     350/ 13/ 16 1017.6S
SISTER BAY       2114   67     360/ 15/ 19   N/A
ALGOMA LAKESHORE 2156          330/ 13/ 18   N/A
KEWAUNEE LAKESHO 2200   60     130/  1/  3 1017.5S
SHEBOYGAN LAKESH 2200   57      50/  7/  8 1018.8R
PORT WASHINGTON  2200   61      50/  5/  9 1019.0
ATWATER BUOY     2200   59 59   40/ 12/ 14 1019.5R
MILWAUKEE LAKESH 2200   58      20/ 11/ 12   N/A
KENOSHA   LAKESH 2200   57      30/ 10/ 12 1018.3R
$$

TC  - TEMPERATURE IN CELSIUS
VSB - VISIBILITY IN STATUTE MILES
WCI - WIND CHILL INDEX
HX  - HEAT INDEX




USA.gov is the U.S. government's official web portal to all federal, state and local government web resources and services.